Starlink 32649

operational
NORAD ID: 62305 Int'l Des: 2024-239 Owner: SPXS Country: US Constellation: starlink
LEOCIRCULAR

Starlink 32649について

説明を読み込み中...

リアルタイム位置

3D地球を読み込み中...

次回通過

高度履歴

Altitude vs Time

uPlot chart will show altitude changes over time

軌道要素

1 62305U 24239E 25307.72625065 .00028553 00000-0 97355-3 0 9991
2 62305 53.1599 58.6360 0001162 47.3189 312.7909 15.30163859 50108
Epoch: Nov 3, 2025 • Age: 22 hours

現在のステータス

高度 474.9 km
速度 7.63 km/s
衛星直下点 19.60°N, 153.38°E
打ち上げ日 Dec 13, 2024
運用期間 0.8 years
タイプ internet

技術仕様

分類 Payload
質量 730.00 kg
乾燥質量 700.00 kg
総質量 730.00 kg
長さ 0.30 m
直径 4.10 m
スパン 29.00 m
形状 Box + pan
製造者 SPXS
バスタイプ Starlink V2M
フェーズステータス In Orbit
所有者/国 SPXS/US

大規模コンステレーション

Loading constellations...